Vorticity
1 8 8 17 22 8 11 -20 -1 8 7 12 3 11 -13 3 4 4 9 10 9 9 12 14 11 15 19 11 10 9 12 12 12 11 11 13 9 11 9 10 10 12 7 11
11 10 10 9 7 18 14 14 -18 1 2 30 27 12 -0 5 6 10 9 4 8 11 8 9 7 11 19 9 6 8 13 15 12 14 13 9 11 9 9 9 9 15 12 26
8 12 12 23 32 6 13 17 22 4 -20 6 -8 4 4 9 8 4 4 6 6 9 12 16 6 5 18 12 7 7 6 11 7 9 10 14 17 9 8 8 10 5 14 15
5 12 13 0 11 26 16 9 14 6 5 19 4 -1 10 10 6 5 7 10 4 13 9 9 8 6 21 14 7 8 10 12 11 15 18 14 7 9 1 14 13 16 7 15
3 15 -10 13 15 20 18 24 22 16 13 5 11 8 6 5 10 12 15 4 13 12 19 15 11 18 22 13 9 7 13 18 27 14 13 12 9 11 20 28 21 12 20 12
12 6 3 1 13 20 8 4 32 19 7 10 8 4 4 8 10 6 7 10 11 15 12 21 21 15 14 14 12 13 14 19 10 11 21 17 16 15 14 12 12 8 8 9
3 1 11 7 19 9 -6 25 7 12 9 5 4 6 9 8 6 8 14 2 14 12 11 20 13 12 15 12 16 9 14 10 14 9 11 10 6 7 7 9 7 6 6 5
16 7 18 19 18 -7 11 0 17 7 7 7 5 9 7 12 10 11 8 9 11 28 20 21 8 8 11 16 20 7 13 11 11 11 6 6 9 5 7 7 6 5 4 4
-3 14 1 9 2 6 -2 1 15 5 10 11 10 12 11 9 6 11 7 12 12 24 29 18 10 11 12 20 17 14 24 12 8 4 6 5 6 8 7 7 6 5 4 5
5 28 8 15 10 8 9 11 8 6 7 4 4 4 8 18 16 13 8 13 11 14 13 13 16 18 20 13 13 21 8 6 5 6 5 6 7 7 7 6 5 5 5 6
12 -7 -0 15 8 5 0 10 5 17 4 3 5 9 1 12 19 7 6 10 11 11 11 11 12 13 14 12 10 7 6 6 6 5 6 6 6 6 7 7 6 6 6 6
7 13 8 -3 4 5 12 11 8 10 9 4 5 1 1 6 12 16 11 4 14 11 10 10 9 8 8 8 7 7 7 6 5 6 7 7 8 8 7 7 6 6 6 6
5 -2 -2 6 -2 9 11 15 8 1 12 18 1 5 7 5 10 3 24 7 6 15 9 10 8 7 7 8 7 7 6 6 6 8 8 8 8 8 7 7 6 6 6 7
6 14 -2 -3 2 4 4 8 12 9 11 18 11 12 4 7 5 7 11 15 6 5 16 11 9 8 8 9 8 8 7 6 7 8 8 8 8 8 7 7 6 6 7 7
18 15 18 18 15 17 8 6 5 2 4 8 8 7 8 9 7 5 5 5 15 8 5 10 13 10 10 10 8 8 8 7 7 7 7 7 8 7 7 7 7 7 7 7
4 1 13 19 22 17 17 17 11 19 18 11 8 11 7 7 10 8 9 10 11 11 5 7 3 9 9 9 8 8 8 7 6 7 7 7 7 7 7 7 7 7 7 7
4 9 14 0 6 4 10 10 15 6 5 12 14 4 6 17 15 11 10 6 12 12 8 13 6 6 6 9 9 8 8 7 7 7 7 7 7 6 6 7 7 7 7 7
14 5 3 12 17 19 18 15 11 10 15 12 14 13 4 4 8 7 9 11 12 14 15 9 -1 11 4 9 5 6 9 8 7 7 7 7 7 7 6 7 7 7 6 6
19 19 18 17 12 10 16 12 9 6 16 16 14 13 14 7 3 2 4 8 6 7 16 13 25 -5 13 14 11 7 8 8 8 8 7 7 7 6 7 7 7 7 6 6
12 18 22 22 22 23 19 12 14 14 12 10 19 25 24 21 6 6 3 7 10 -5 14 0 13 7 11 14 16 13 10 10 6 8 5 7 8 5 6 7 7 7 7 6
19 20 20 18 15 13 14 14 14 12 9 14 26 23 26 24 19 14 10 8 -4 25 14 8 12 4 5 11 9 14 12 12 22 10 -2 4 5 5 6 7 7 6 6 6
4 5 7 11 14 20 26 26 25 17 11 13 11 20 22 24 16 10 6 4 6 16 5 9 3 28 9 10 20 17 12 13 13 1 21 9 4 7 5 7 7 7 7 8
0 2 3 5 4 8 10 14 27 29 16 16 12 12 15 12 21 14 19 14 20 14 11 10 16 13 5 8 16 21 17 11 8 2 9 8 24 2 6 7 7 7 8 6
4 3 4 5 6 6 3 3 8 19 26 20 16 18 19 18 18 7 33 24 16 17 11 10 6 10 11 16 11 25 20 17 11 7 4 22 11 2 4 7 8 8 6 3
9 8 8 7 7 7 7 7 7 2 8 16 8 17 16 13 15 19 17 23 29 30 28 27 27 30 34 35 30 27 21 23 11 -1 10 13 15 6 4 7 6 7 5 2
8 3 4 5 6 8 8 9 9 10 12 8 4 6 5 10 11 8 9 11 12 11 11 10 11 9 9 14 19 20 21 19 1 7 7 7 8 5 7 2 3 6 9 12
5 3 7 10 13 14 15 16 16 15 16 18 18 11 4 4 6 5 8 9 5 8 9 10 10 11 11 12 14 14 10 1 2 6 4 4 8 7 11 16 16 15 15 12
Height
3021 3022 3022 3022 3024 3026 3028 3032 3034 3034 3034 3035 3037 3039 3043 3044 3045 3046 3047 3047 3046 3045 3044 3043 3043 3042 3041 3042 3043 3043 3043 3042 3042 3043 3043 3044 3044 3043 3042 3041 3041 3042 3042 3039
3021 3021 3021 3021 3021 3022 3025 3028 3031 3033 3033 3035 3037 3039 3041 3041 3043 3043 3043 3043 3042 3041 3039 3038 3038 3037 3037 3038 3039 3039 3038 3039 3039 3039 3039 3040 3039 3039 3037 3037 3037 3037 3036 3033
3021 3020 3019 3019 3017 3018 3020 3023 3027 3029 3033 3034 3036 3037 3038 3038 3039 3039 3040 3039 3038 3037 3034 3033 3034 3033 3033 3033 3034 3034 3034 3034 3034 3035 3035 3036 3036 3034 3034 3034 3034 3034 3032 3030
3020 3020 3020 3016 3016 3016 3018 3020 3022 3025 3029 3032 3031 3033 3034 3035 3035 3035 3035 3034 3033 3032 3030 3029 3028 3027 3027 3028 3030 3030 3030 3030 3031 3030 3031 3032 3031 3030 3030 3031 3030 3031 3030 3027
3020 3019 3018 3015 3015 3016 3016 3018 3018 3021 3024 3026 3028 3030 3031 3032 3031 3032 3031 3029 3027 3026 3024 3023 3023 3023 3023 3024 3025 3025 3026 3026 3026 3027 3027 3027 3027 3028 3028 3028 3028 3029 3028 3027
3019 3019 3016 3015 3014 3015 3016 3018 3016 3019 3022 3024 3026 3027 3029 3029 3028 3028 3026 3024 3022 3020 3018 3017 3017 3018 3019 3020 3021 3022 3022 3023 3024 3025 3025 3025 3026 3027 3028 3027 3028 3029 3027 3026
3017 3017 3015 3014 3014 3015 3017 3021 3017 3019 3021 3023 3024 3026 3025 3025 3025 3024 3022 3020 3018 3016 3014 3013 3014 3015 3016 3017 3018 3020 3020 3021 3023 3023 3024 3025 3026 3027 3028 3028 3029 3028 3028 3027
3015 3015 3014 3012 3013 3015 3015 3015 3016 3018 3019 3020 3022 3022 3022 3021 3021 3020 3019 3017 3014 3011 3010 3010 3012 3013 3013 3014 3016 3018 3019 3020 3022 3023 3024 3025 3027 3028 3028 3028 3028 3028 3028 3027
3012 3010 3010 3010 3010 3011 3013 3014 3015 3017 3018 3018 3019 3019 3019 3018 3018 3017 3016 3014 3012 3009 3008 3009 3010 3010 3011 3012 3014 3015 3016 3019 3022 3023 3024 3025 3027 3028 3028 3028 3028 3028 3027 3026
3009 3008 3008 3009 3009 3010 3011 3013 3014 3015 3016 3016 3017 3017 3016 3014 3014 3014 3013 3012 3011 3009 3008 3008 3009 3009 3011 3012 3013 3014 3016 3019 3021 3023 3024 3026 3026 3027 3027 3027 3027 3026 3025 3025
3006 3006 3006 3007 3007 3007 3009 3010 3011 3012 3013 3014 3014 3014 3014 3013 3012 3012 3012 3011 3010 3008 3008 3009 3010 3011 3012 3012 3012 3015 3017 3020 3021 3023 3024 3024 3025 3026 3026 3026 3026 3024 3024 3023
3004 3004 3004 3002 3003 3005 3005 3006 3007 3008 3009 3010 3010 3010 3011 3010 3010 3009 3009 3009 3008 3009 3009 3010 3011 3011 3011 3012 3013 3016 3017 3019 3021 3022 3023 3024 3024 3024 3024 3024 3023 3023 3021 3019
3000 2999 3001 3000 3000 3001 3001 3002 3002 3003 3004 3004 3005 3006 3007 3008 3008 3007 3007 3007 3007 3008 3008 3008 3009 3009 3011 3012 3013 3014 3016 3018 3019 3021 3021 3022 3022 3022 3021 3021 3021 3020 3017 3016
2995 2997 2997 2996 2994 2997 2997 2997 2997 2998 2998 2999 3000 3001 3002 3004 3004 3004 3004 3005 3005 3006 3006 3006 3007 3008 3009 3010 3011 3013 3014 3016 3017 3018 3019 3019 3020 3019 3019 3018 3017 3016 3015 3013
2989 2990 2989 2989 2988 2989 2990 2990 2992 2992 2993 2994 2995 2996 2997 2999 2999 3000 3000 3000 3002 3002 3003 3003 3004 3005 3006 3007 3009 3010 3012 3013 3014 3015 3015 3016 3016 3016 3015 3014 3013 3012 3011 3009
2983 2983 2983 2982 2982 2982 2982 2983 2984 2985 2986 2987 2988 2989 2990 2991 2993 2994 2995 2995 2996 2998 2998 2999 3001 3001 3002 3003 3005 3007 3008 3009 3010 3011 3011 3012 3012 3011 3011 3010 3008 3007 3006 3004
2976 2977 2977 2977 2976 2976 2976 2976 2976 2978 2979 2980 2980 2982 2983 2984 2986 2987 2989 2990 2991 2992 2993 2994 2996 2997 2999 3000 3001 3002 3003 3005 3005 3006 3007 3007 3007 3006 3006 3005 3004 3002 3001 2999
2969 2970 2969 2969 2968 2967 2967 2968 2969 2970 2971 2972 2973 2974 2976 2978 2980 2981 2982 2983 2985 2986 2987 2989 2990 2992 2993 2994 2995 2996 2997 2998 3000 3001 3002 3002 3002 3002 3001 3000 2999 2998 2996 2994
2963 2962 2962 2961 2961 2961 2961 2962 2962 2963 2963 2963 2964 2966 2967 2969 2972 2974 2975 2977 2979 2980 2982 2982 2983 2985 2985 2986 2987 2989 2990 2992 2994 2995 2996 2997 2997 2996 2995 2994 2994 2992 2991 2989
2959 2958 2957 2956 2955 2954 2955 2955 2956 2956 2956 2956 2955 2955 2956 2960 2963 2966 2968 2970 2972 2973 2974 2974 2975 2977 2978 2979 2979 2981 2983 2984 2986 2988 2989 2990 2990 2990 2989 2988 2988 2986 2985 2983
2957 2956 2955 2953 2952 2951 2951 2950 2950 2951 2951 2950 2948 2947 2948 2951 2954 2957 2959 2962 2965 2964 2966 2966 2967 2969 2969 2970 2971 2972 2974 2976 2977 2979 2980 2981 2982 2983 2982 2981 2981 2980 2978 2976
2956 2956 2954 2953 2951 2950 2948 2947 2946 2946 2946 2945 2944 2943 2943 2945 2947 2949 2951 2954 2955 2956 2957 2958 2959 2959 2960 2961 2962 2963 2964 2967 2969 2970 2972 2973 2974 2975 2975 2975 2974 2973 2971 2969
2956 2955 2954 2953 2951 2949 2947 2945 2943 2942 2941 2940 2940 2940 2940 2940 2941 2942 2944 2945 2946 2948 2949 2949 2950 2951 2951 2951 2952 2953 2955 2958 2961 2964 2965 2966 2966 2967 2967 2967 2967 2965 2964 2962
2954 2953 2952 2951 2950 2948 2946 2944 2942 2941 2939 2937 2937 2936 2936 2936 2936 2936 2936 2937 2938 2939 2940 2941 2941 2942 2941 2942 2943 2944 2946 2950 2954 2957 2958 2958 2958 2959 2960 2960 2959 2957 2956 2954
2951 2950 2949 2948 2946 2945 2943 2942 2940 2939 2937 2936 2934 2933 2932 2932 2932 2932 2931 2931 2931 2932 2932 2933 2933 2933 2933 2934 2935 2937 2940 2944 2947 2950 2951 2951 2952 2951 2952 2952 2951 2950 2948 2946
2947 2946 2945 2943 2941 2940 2938 2937 2935 2934 2933 2932 2931 2930 2929 2929 2929 2928 2928 2928 2928 2928 2928 2928 2929 2929 2930 2930 2931 2933 2935 2939 2941 2943 2944 2944 2943 2944 2945 2944 2943 2941 2939 2937
2942 2941 2939 2938 2936 2934 2932 2931 2929 2928 2927 2926 2925 2925 2925 2925 2925 2925 2924 2924 2924 2924 2924 2925 2925 2926 2927 2928 2928 2930 2932 2934 2935 2936 2937 2936 2936 2935 2935 2935 2934 2933 2931 2929